Find BRO-8

NORAD ID: 55011 Int'l Des: 2023-001 Owner: UNSEEN Country: F operational
LEOCIRCULARRETROGRADESSO

リアルタイム位置

3D地球を読み込み中...

BRO-8について

説明を読み込み中...

次回通過

Passes for default location (London). Set your location on the main map for personalized predictions.

高度履歴

Loading altitude history...

軌道要素

1 55011U 23001C 26134.30394727 .00020863 00000-0 41475-3 0 9992
2 55011 97.3242 199.0514 0005120 228.4955 131.5856 15.46971046186965
Epoch: May 14, 2026 • Age: 9 hours

現在のステータス

高度 434.8 km
速度 7.65 km/s
衛星直下点 -20.30°S, 81.9°E
打ち上げ日 Jan 3, 2023
運用期間 3.3 years
タイプ other

技術仕様

分類 Payload
質量 10.00 kg
乾燥質量 10.00 kg
総質量 10.00 kg
長さ 0.30 m
直径 0.20 m
スパン 0.30 m
形状 Box
製造者 GOMSP
バスタイプ Cubesat 6U
フェーズステータス In Orbit
所有者/国 UNSEEN/F

Most Searched